IRIDIUM 76 [+]

Last updated on Wed Mar 21 2018 20:48:32 GMT+0000 (Coordinated Universal Time)

1 25432U 98048B 18080.42370153 .00000136 00000-0 38017-4 0 9990 2 25432 86.4266 139.6428 0002129 106.2351 253.9081 14.38601901 25339
UTC large
Height (km)
Speed (km/s)
/
Latitude / Longitude
Inclination (degrees)
Orbital Period (minutes)
Azimuth
Elevation
Range (km)
Doppler Factor

Next 0 passes for location: London (51.5072 / 0.1276)

Sorry there are no passes over London.